User: anonymous   Login
Location: Franzen
(48.6167°N, 15.3833°E)
Time: 23:56:08
(UTC+00:00)
Language:

SL-4 R/B - Orbit

View from above orbital plane
View from above orbital plane
View from above satellite
View from above satellite

Ground track
Ground track

The orbit data is extracted from the following two-line orbital elements,

1 39679U 14021B   21172.43499062  .00000120  00000-0  23971-4 0  9991
2 39679  51.6139 194.4014 0170324 144.8000 216.4362 15.07005765394655
Epoch (UTC): 21 June 2021 10:26:23
Eccentricity: 0.0170324
inclination: 51.6139°
perigee height: 427 km
apogee height: 663 km
right ascension of ascending node: 194.4014°
argument of perigee: 144.8000°
revolutions per day: 15.07005765
mean anomaly at epoch: 216.4362°
orbit number at epoch: 39465

The dashed part of the orbit path shows where the satellite is in the earth's shadow,  

DLR